Bedford, Massachusetts, United States (01730)
Lat: 42.49N, Lon: 71.28W
Wx Zone: MAZ005
Local Info
Past Weather Observations for Sunday, March 22, 2015

NOTE: This archive is for the closest National Weather Service station to Bedford. Information may differ from the station used for current weather conditions.

Click here for Long-term Archive

Time Weather Temperature Dewpoint Humidity Pressure Winds Precip Visibility
23:56
Clear
18°F / -8°C -6°F / -21°C 35% 30.09 in
(1019 mb)
WNW 13.8 mph
(WNW 22 kph)
- 10SM
22:56
Clear
18°F / -8°C -6°F / -21°C 35% 30.09 in
(1019 mb)
W 5.8 mph
(W 9 kph)
- 10SM
21:56
Clear
19°F / -7°C -6°F / -21°C 32% 30.09 in
(1019 mb)
NW 17.3 mph
(NW 28 kph)
- 10SM
20:56
Clear
21°F / -6°C -2°F / -19°C 35% 30.06 in
(1018 mb)
NW 9.2 mph
(NW 15 kph)
- 10SM
19:56
Clear
21°F / -6°C °F / -18°C 38% 30.04 in
(1017 mb)
NW 12.7 mph
(NW 20 kph)
- 10SM
18:56
Clear
25°F / -4°C -2°F / -19°C 30% 30.01 in
(1016 mb)
NW 9.2 mph
(NW 15 kph)
- 10SM
17:56
Clear
27°F / -3°C -2°F / -19°C 28% 29.95 in
(1014 mb)
NW 12.7 mph
(NW 20 kph)
- 10SM
16:56
Clear
28°F / -2°C °F / -18°C 29% 29.95 in
(1014 mb)
WNW 19.6 mph
(WNW 32 kph)
- 10SM
15:56
Clear
28°F / -2°C -2°F / -19°C 26% 29.92 in
(1013 mb)
WNW 20.7 mph
(WNW 33 kph)
- 10SM
14:56
Clear
30°F / -1°C 1°F / -17°C 29% 29.92 in
(1013 mb)
NW 20.7 mph
(NW 33 kph)
- 10SM
13:56
Clear
28°F / -2°C °F / -18°C 29% 29.92 in
(1013 mb)
WNW 21.9 mph
(WNW 35 kph)
- 10SM
12:56
Clear
28°F / -2°C 1°F / -17°C 31% 29.95 in
(1014 mb)
NW 25.3 mph
(NW 41 kph)
- 10SM
11:56
Clear
28°F / -2°C -2°F / -19°C 26% 29.95 in
(1014 mb)
WNW 23 mph
(WNW 37 kph)
- 10SM
10:56
Clear
28°F / -2°C 1°F / -17°C 31% 29.95 in
(1014 mb)
WNW 21.9 mph
(WNW 35 kph)
- 10SM
09:56
Clear
27°F / -3°C 3°F / -16°C 36% 29.95 in
(1014 mb)
NW 24.2 mph
(NW 39 kph)
- 10SM
08:56
Clear
25°F / -4°C 3°F / -16°C 39% 29.98 in
(1015 mb)
W 17.3 mph
(W 28 kph)
- 10SM
07:56
Clear
25°F / -4°C 3°F / -16°C 39% 29.95 in
(1014 mb)
NW 16.1 mph
(NW 26 kph)
- 10SM
06:56
Clear
21°F / -6°C 1°F / -17°C 42% 29.95 in
(1014 mb)
NW 20.7 mph
(NW 33 kph)
- 10SM
05:56
Clear
23°F / -5°C 5°F / -15°C 46% 29.92 in
(1013 mb)
NW 16.1 mph
(NW 26 kph)
- 10SM
04:56
Clear
27°F / -3°C 9°F / -13°C 46% 29.89 in
(1012 mb)
NW 23 mph
(NW 37 kph)
- 10SM
03:56
Partly Cloudy
30°F / -1°C 16°F / -9°C 55% 29.83 in
(1010 mb)
NW 18.4 mph
(NW 30 kph)
- 10SM
02:56
Mostly Cloudy
34°F / 1°C 16°F / -9°C 48% 29.8 in
(1009 mb)
WNW 16.1 mph
(WNW 26 kph)
- 10SM
01:56
Mostly Cloudy
36°F / 2°C 18°F / -8°C 48% 29.77 in
(1008 mb)
NW 19.6 mph
(NW 32 kph)
- 10SM
00:56
Partly Cloudy
37°F / 3°C 21°F / -6°C 52% 29.74 in
(1007 mb)
W 12.7 mph
(W 20 kph)
- 10SM
Time Weather Temperature Dewpoint Humidity Pressure Winds Precip Visibility


Weather for websites

WeatherForYou.com, LLC is not responsible for any damages or problems caused by this service. Current weather conditions are obtained from the closest station including government and personal stations which may have varying degrees of accuracy. Weather forecasts are derived from the NOAA NDFD. Like all things, this site belongs to Jesus Christ... He just trusts me to maintain it. If you have any questions or comments email webmaster@weatherforyou.com

Copyright © 2015, WeatherForYou.com LLC. All rights reserved.